THORAD AGENA D DEB, 42551

Orbit data source: Space-Track

THORAD AGENA D DEB, 42551 is space debris in SSO originally from a launch on Wed, 08 Apr 1970 UTC launched from the Air Force Western Test Range (AFWTR). Debris objects in space refer to the collection of defunct objects orbiting the Earth. Examples of debris include non-operational satellites, rocket bodies, and fragments generated from explosions, collisions, or faulty payload assembly.

Loading next visibility...
Identifier
42551, 1970-025TH
Orbit
SSO
Country
Flag of USUS
Related business
Manufacturer
Unknown
Mission
Spacecraft
Bus & Motor
Unknown
Mass
Unknown
Launch date (UTC)
1970-04-08 (56 years ago)
Launch vehicle
Unknown
Launch site
Air Force Western Test Range (AFWTR)
Object type
Payload
Rocket body
Debris
Shape & HBR
Unknown shape, 0.1 m
Radar Cross Section
Small (<0.1 m²)

Expand to show TLE details & history
Last TLE update: 15 hours ago

TLE from 15 hours ago
0 THORAD AGENA D DEB
1 42551U 70025TH  25296.08368223  .00001986  00000-0  13591-2 0  9992
2 42551  99.9898 342.8975 0010780 333.5056  26.5553 14.01036100606420
Epoch: 2025-10-23T02:00Z
TLE epoch observation values (Epoch: 2025-10-23T02:00:30.144Z)
Latitude
-0.00008°
Longitude
-78.97611°
Altitude
886.046 km
Speed
7.413 km/s
True Right ascension
22h 51m 35s
True Declination
0° 00' 00"
Sunlit
Object was in full shadow at epoch
Visualization orbit readout
Latitude
Unknown
Longitude
Unknown
Altitude
Unknown
Speed
Unknown
Apparent Right ascension
Unknown
Apparent Declination
Unknown
Sunlit
N/A
Visualization observer readout
Local Sidereal Time
12:19:40
Azimuth
Unknown
Elevation
Unknown
Doppler factor
Unknown
Orbital elements
Apogee altitude
895.291 km
Perigee altitude
879.626 km
Semi-major axis
7,265.596 km
Eccentricity
0.00108
Inclination
99.9898°
RAAN
342.8975°
Arg. of periapsis
333.5056°
True anomaly
26.61059°
Mean anomaly
26.5553°
Eccentric anomaly
26.58294°
Mean motion
3.50458 °/min
Orbital period
102.72 mins
BSTAR
0.0013591
Loading maneuver chart data...
Computing Atmospheric mass density...

Documentation

Showing up to 5 results
|